sat.trackr.live / text

‹ back to catalog

STARLINK-34727

NORAD 65025 · 2025-161L

PAYLOAD ACTIVE UNKNOWN

§ Identity

Operator
Country
US
Launch date
2025-07-30
Launch site
AFWTR
Launch vehicle
Mass (kg)
RCS (m²)

Purposes: comms

External: N2YO · Heavens-Above · Gunter

§ Orbital elements

Epoch: 2026-09-19T22:11:01.175424Z

Period
93.85 min
Inclination
53.1579°
Eccentricity
0.0001279
Mean motion
15.34401628 rev/d
Perigee alt
461.8 km
Apogee alt
463.6 km
Semi-major
6,840.8 km
B*
3.1069e-4
RAAN
108.0598°
Arg perigee
88.7708°
Mean anomaly
271.3441°
Rev number
6,514

§ Raw data

STARLINK-347271 65025U 25161L   26262.92431916  .00010136  00000+0  31069-3 0  99982 65025  53.1579 108.0598 0001279  88.7708 271.3441 15.34401628 65140

JSON: /api/v1/satellites/65025 · /tle

For live sub-satellite position, see the globe view (requires WebGL).

§ Visibility from observer

Set your observer location to see the next 7 days of passes ≥ 10°. The values pass through the URL so the page stays shareable.

No JS? Fill the form by hand. The geolocation button needs JavaScript.